sat.trackr.live / text

‹ back to catalog

GEESAT-5 11

NORAD 65560 · 2025-201L

PAYLOAD ACTIVE UNKNOWN

§ Identity

Operator
Country
PRC
Launch date
2025-09-08
Launch site
YSLA
Launch vehicle
Mass (kg)
RCS (m²)

External: N2YO · Heavens-Above · Gunter

§ Orbital elements

Epoch: 2026-09-20T20:57:11.954592Z

Period
97.01 min
Inclination
49.9884°
Eccentricity
0.0008468
Mean motion
14.84408866 rev/d
Perigee alt
609.5 km
Apogee alt
621.4 km
Semi-major
6,993.6 km
B*
1.1928e-4
RAAN
314.8957°
Arg perigee
346.7783°
Mean anomaly
13.2932°
Rev number
5,603

§ Raw data

GEESAT-5 111 65560U 25201L   26263.87305503  .00000785  00000+0  11928-3 0  99952 65560  49.9884 314.8957 0008468 346.7783  13.2932 14.84408866 56030

JSON: /api/v1/satellites/65560 · /tle

For live sub-satellite position, see the globe view (requires WebGL).

§ Visibility from observer

Set your observer location to see the next 7 days of passes ≥ 10°. The values pass through the URL so the page stays shareable.

No JS? Fill the form by hand. The geolocation button needs JavaScript.